TimeMST,TemperatureF,Dew PointF,Humidity,Sea Level PressureIn,VisibilityMPH,Wind Direction,Wind SpeedMPH,Gust SpeedMPH,PrecipitationIn,Events,Conditions,WindDirDegrees,DateUTC
12:53 AM,30.0,27.0,88,29.70,2.5,North,13.8,-,0.00,Snow,Light Snow,350,2013-03-09 07:53:00
1:05 AM,30.2,26.6,86,29.72,4.0,North,13.8,-,0.00,Snow,Light Snow,350,2013-03-09 08:05:00
1:23 AM,30.2,26.6,86,29.73,7.0,North,13.8,-,0.00,,Overcast,360,2013-03-09 08:23:00
1:34 AM,28.4,26.6,93,29.73,6.0,North,12.7,-,0.00,,Overcast,360,2013-03-09 08:34:00
1:53 AM,28.9,27.0,92,29.70,4.0,North,13.8,-,0.00,,Overcast,350,2013-03-09 08:53:00
2:03 AM,28.4,26.6,93,29.73,6.0,North,10.4,-,N/A,,Overcast,360,2013-03-09 09:03:00
2:48 AM,28.4,26.6,93,29.72,6.0,North,10.4,-,N/A,,Overcast,360,2013-03-09 09:48:00
2:53 AM,28.0,26.1,92,29.69,6.0,North,9.2,-,N/A,,Overcast,350,2013-03-09 09:53:00
3:07 AM,28.4,26.6,93,29.72,4.0,North,11.5,-,0.00,Snow,Light Snow,350,2013-03-09 10:07:00
3:53 AM,27.0,25.0,92,29.70,4.0,North,10.4,-,0.00,Snow,Light Snow,350,2013-03-09 10:53:00
4:18 AM,26.6,24.8,93,29.73,4.0,North,10.4,-,0.00,,Overcast,350,2013-03-09 11:18:00
4:53 AM,26.1,24.1,92,29.73,2.5,North,13.8,-,0.00,,Overcast,350,2013-03-09 11:53:00
4:57 AM,26.6,24.8,93,29.74,1.5,North,12.7,-,N/A,,Overcast,350,2013-03-09 11:57:00
5:13 AM,26.6,24.8,93,29.75,0.5,NNW,11.5,-,N/A,Fog,Light Freezing Fog,340,2013-03-09 12:13:00
5:25 AM,26.6,24.8,93,29.75,1.8,North,10.4,-,N/A,,Overcast,350,2013-03-09 12:25:00
5:31 AM,26.6,24.8,93,29.76,3.0,North,11.5,-,N/A,,Overcast,350,2013-03-09 12:31:00
5:53 AM,26.1,24.1,92,29.77,4.0,North,11.5,-,N/A,,Overcast,350,2013-03-09 12:53:00
6:04 AM,26.6,24.8,93,29.77,2.0,NNW,11.5,-,N/A,,Overcast,340,2013-03-09 13:04:00
6:30 AM,26.6,24.8,93,29.78,4.0,North,11.5,-,N/A,,Overcast,350,2013-03-09 13:30:00
6:44 AM,26.6,24.8,93,29.79,7.0,North,11.5,-,N/A,,Overcast,350,2013-03-09 13:44:00
6:53 AM,26.1,24.1,92,29.80,7.0,NNW,11.5,-,N/A,,Overcast,340,2013-03-09 13:53:00
7:53 AM,25.0,24.1,96,29.85,5.0,North,11.5,-,N/A,,Overcast,350,2013-03-09 14:53:00
8:18 AM,24.8,24.8,100,29.83,6.0,NNW,12.7,-,N/A,,Overcast,340,2013-03-09 15:18:00
8:45 AM,26.6,24.8,93,29.84,6.0,North,13.8,-,N/A,,Overcast,350,2013-03-09 15:45:00
8:53 AM,25.0,23.0,92,29.88,7.0,NNW,13.8,-,N/A,,Overcast,340,2013-03-09 15:53:00
9:11 AM,26.6,23.0,86,29.85,10.0,North,13.8,-,N/A,,Overcast,350,2013-03-09 16:11:00
9:53 AM,26.1,23.0,88,29.89,10.0,NNW,11.5,-,N/A,,Overcast,340,2013-03-09 16:53:00
10:00 AM,26.6,24.8,93,29.87,10.0,NNW,10.4,-,N/A,,Overcast,340,2013-03-09 17:00:00
10:53 AM,28.0,23.0,81,29.92,10.0,North,10.4,-,N/A,,Overcast,350,2013-03-09 17:53:00
11:39 AM,30.2,24.8,80,29.92,10.0,North,9.2,-,0.01,,Overcast,360,2013-03-09 18:39:00
11:53 AM,30.9,24.1,76,29.92,10.0,NNW,10.4,-,0.01,,Overcast,340,2013-03-09 18:53:00
12:16 PM,32.0,24.8,75,29.92,10.0,North,9.2,-,N/A,,Scattered Clouds,350,2013-03-09 19:16:00
12:53 PM,34.0,24.1,67,29.92,10.0,WNW,5.8,-,N/A,,Partly Cloudy,300,2013-03-09 19:53:00
1:11 PM,33.8,24.8,70,29.93,10.0,North,6.9,-,N/A,,Mostly Cloudy,350,2013-03-09 20:11:00
1:33 PM,33.8,24.8,70,29.93,10.0,North,8.1,-,N/A,,Scattered Clouds,350,2013-03-09 20:33:00
1:53 PM,34.0,23.0,64,29.93,10.0,NNW,10.4,-,N/A,,Partly Cloudy,340,2013-03-09 20:53:00
2:53 PM,34.0,21.0,59,29.95,10.0,North,19.6,-,N/A,,Clear,350,2013-03-09 21:53:00
3:53 PM,34.0,21.0,59,29.98,10.0,North,19.6,-,N/A,,Clear,360,2013-03-09 22:53:00
4:53 PM,34.0,18.0,52,30.02,10.0,North,17.3,21.9,N/A,,Clear,360,2013-03-09 23:53:00
5:53 PM,30.9,17.1,57,30.06,10.0,North,21.9,-,N/A,,Clear,350,2013-03-10 00:53:00
6:53 PM,27.0,16.0,63,30.12,10.0,NNW,12.7,-,N/A,,Clear,330,2013-03-10 01:53:00
7:53 PM,25.0,15.1,66,30.19,10.0,Calm,Calm,-,N/A,,Clear,0,2013-03-10 02:53:00
8:53 PM,24.1,15.1,69,30.21,10.0,NNW,11.5,-,N/A,,Clear,330,2013-03-10 03:53:00
9:53 PM,24.1,15.1,69,30.24,10.0,North,13.8,-,N/A,,Clear,350,2013-03-10 04:53:00
10:53 PM,23.0,14.0,68,30.24,10.0,North,11.5,-,N/A,,Clear,350,2013-03-10 05:53:00
11:53 PM,23.0,14.0,68,30.25,10.0,Calm,Calm,-,N/A,,Clear,0,2013-03-10 06:53:00